User: anonymous   Login
Location: Edmonton
(53.5500°N, 113.5000°W)
Time: 04:42:14
(UTC-06:00)
Language:

CZ-4C R/B - Orbit

View from above orbital plane
View from above orbital plane
View from above satellite
View from above satellite

Ground track
Ground track

The orbit data is extracted from the following two-line orbital elements,

1 36416U 10009D   17206.39464575 -.00000093 +00000-0 +21012-5 0  9993
2 36416 063.4377 161.6728 0390866 356.2262 003.5848 13.69517847369446
Epoch (UTC): 25 July 2017 09:28:17
Eccentricity: 0.0390866
inclination: 63.4377°
perigee height: 713 km
apogee height: 1290 km
right ascension of ascending node: 161.6728°
argument of perigee: 356.2262°
revolutions per day: 13.69517847
mean anomaly at epoch: 3.5848°
orbit number at epoch: 36944

The dashed part of the orbit path shows where the satellite is in the earth's shadow,  

DLR